[[{"header":{"parameterUnit":"m.s-1","parameterCategory":1,"la1":30.2992,"la2":30.254,"lo1":-89.0895,"lo2":-89.0443,"dy":0.0025,"dx":0.0025,"nx":19,"ny":19,"refTime":"2026-04-25T03:00:00:Z","depth":0,"parameterNumber":2,"parameterNumberName":"U-component_of_WINDS"},"data":[0,0,0,0.3364,0.3364,0.3325,0.3325,0.328,0.3279,0,0,0,0,0,0,0,0,0,0,0,0.338,0.338,0.3364,0.3364,0.3325,0.3325,0.328,0.3279,0,0,0,0,0,0,0,0,0,0,0,0.338,0.338,0.338,0.3364,0.3325,0.3325,0.328,0.3307,0,0,0,0,0,0,0,0,0,0,0.3344,0.3363,0.338,0.338,0.3363,0.3325,0.3325,0.3308,0.3305,0.33,0,0.3297,0,0.3288,0.3277,0.3277,0,0,0,0.336,0.3366,0.3351,0.338,0.3363,0.3325,0.3341,0.3307,0.3303,0.3296,0.3297,0.3295,0.3287,0.3276,0.3276,0.326,0.326,0,0,0.3362,0.3375,0.3354,0.3349,0.3358,0.3343,0.334,0.3304,0.3306,0.3296,0.3294,0.3286,0.3276,0.3276,0.3259,0.326,0,0,0,0.3371,0.3377,0.3363,0.3352,0.3344,0.3342,0.3339,0.3307,0.3302,0.3293,0.3286,0.3276,0.3276,0.3259,0.326,0.3278,0,0,0,0.3372,0.3382,0.3365,0.3372,0.3345,0.3326,0.3343,0.3304,0.33,0.3286,0.3276,0.3275,0.3259,0.3259,0.3277,0.3284,0,0,0,0.3381,0.3383,0.3379,0.3373,0.3357,0.3326,0.3318,0.3303,0.3295,0.3277,0.3275,0.3259,0.3259,0.3277,0.3283,0.3284,0,0,0,0.3395,0.3396,0.338,0.3378,0.3358,0.3338,0.3318,0.3303,0.3289,0.3276,0.3259,0.3259,0.3276,0.3283,0.3283,0.3287,0.329,0,0,0.3403,0.3397,0.3395,0.338,0.3367,0.3343,0.3332,0.3306,0.3291,0.327,0.327,0.3278,0.3283,0.3284,0.3302,0.3304,0,0,0,0.3402,0.3401,0.3394,0.3383,0.3363,0.3347,0.3321,0.3311,0.3293,0.3284,0.3278,0.328,0.328,0.3281,0.3283,0.3282,0.3261,0.3261,0.3261,0.3434,0.3415,0.341,0.3387,0.3375,0.3349,0.3337,0.3319,0.3303,0.3302,0.3296,0.3309,0.3311,0.3312,0.3311,0.3296,0.3296,0.3296,0.3296,0.3444,0.3439,0.3419,0.3406,0.3386,0.3375,0.3348,0.3337,0.3323,0.3312,0.3311,0.3301,0.3316,0.3313,0.3297,0.3297,0.3297,0.3297,0.3297,0.3463,0.3457,0.3446,0.3426,0.3413,0.3388,0.3376,0.3357,0.334,0.3339,0.333,0.3329,0.3326,0.3336,0.3336,0.3336,0.3336,0.3336,0.3336,0.3487,0.3473,0.3466,0.3445,0.3435,0.3418,0.3391,0.3379,0.3362,0.3349,0.3349,0.3333,0.3321,0.3318,0.3337,0.3336,0.3336,0.3336,0.3336,0.3504,0.3497,0.3486,0.3475,0.3449,0.3436,0.3413,0.3391,0.3379,0.3373,0.3356,0.3351,0.3343,0.3341,0.3338,0.3361,0.3361,0.3361,0.3361,0.352,0.3514,0.3498,0.3482,0.3465,0.3443,0.3428,0.3406,0.3382,0.3372,0.3366,0.3361,0.336,0.3353,0.3351,0.3348,0.3373,0.3373,0.3373,0.3529,0.3521,0.3513,0.3491,0.3469,0.345,0.3435,0.3416,0.3387,0.3373,0.3364,0.3364,0.3356,0.3354,0.3341,0.3338,0.3333,0,0]},{"header":{"parameterUnit":"m.s-1","parameterCategory":1,"la1":30.2992,"la2":30.254,"lo1":-89.0895,"lo2":-89.0443,"dy":0.0025,"dx":0.0025,"nx":19,"ny":19,"refTime":"2026-04-25T03:00:00:Z","depth":0,"parameterNumber":3,"parameterNumberName":"V-component_of_WINDS"},"data":[0,0,0,3.1208,3.1209,3.1251,3.1251,3.1306,3.1306,0,0,0,0,0,0,0,0,0,0,0,3.1197,3.1197,3.1208,3.1209,3.1251,3.1251,3.1306,3.1306,0,0,0,0,0,0,0,0,0,0,0,3.1197,3.1197,3.1198,3.1209,3.1251,3.1251,3.1306,3.1273,0,0,0,0,0,0,0,0,0,0,3.1231,3.1224,3.1197,3.1198,3.1209,3.1251,3.1251,3.1271,3.1275,3.1287,0,3.13,0,3.1304,3.131,3.131,0,0,0,3.1207,3.1221,3.1231,3.1198,3.121,3.1251,3.1231,3.1273,3.1278,3.1292,3.1301,3.1303,3.1305,3.1311,3.1311,3.1392,3.1393,0,0,3.1204,3.1205,3.1228,3.1234,3.1229,3.123,3.1233,3.1276,3.1285,3.1301,3.1304,3.1306,3.1311,3.1311,3.1392,3.1392,0,0,0,3.1199,3.1203,3.1212,3.1232,3.1239,3.1231,3.1235,3.1283,3.1286,3.1305,3.1307,3.1311,3.1312,3.1391,3.1392,3.1417,0,0,0,3.1197,3.12,3.1211,3.1212,3.1239,3.1262,3.1241,3.1283,3.1288,3.1307,3.1311,3.1313,3.1391,3.1392,3.1415,3.1428,0,0,0,3.1193,3.12,3.1207,3.1212,3.1231,3.1261,3.1267,3.1284,3.1289,3.131,3.1313,3.139,3.1391,3.1413,3.1425,3.1449,0,0,0,3.1189,3.1227,3.1207,3.1251,3.1231,3.1277,3.1267,3.1301,3.1322,3.1312,3.1391,3.1392,3.1413,3.1424,3.1448,3.147,3.1479,0,0,3.1238,3.1233,3.1259,3.1242,3.1293,3.1271,3.1324,3.1342,3.1342,3.1375,3.1377,3.1416,3.1425,3.1449,3.1533,3.1541,0,0,0,3.1275,3.1293,3.1307,3.1328,3.1344,3.1358,3.1368,3.1374,3.1402,3.136,3.1431,3.1437,3.1451,3.1461,3.1467,3.1479,3.1397,3.1397,3.1397,3.1344,3.1344,3.1387,3.1392,3.1413,3.1423,3.1439,3.1449,3.1442,3.1459,3.1468,3.1519,3.1532,3.1537,3.1549,3.148,3.148,3.148,3.148,3.1416,3.1442,3.1433,3.1471,3.147,3.15,3.1512,3.1505,3.1533,3.1512,3.1524,3.1501,3.1545,3.1556,3.1482,3.1482,3.1482,3.1482,3.1481,3.1461,3.1473,3.1482,3.1513,3.1537,3.154,3.1568,3.1565,3.1563,3.1575,3.1585,3.1584,3.1583,3.158,3.1581,3.1581,3.1581,3.1581,3.1581,3.1504,3.1513,3.1538,3.1558,3.1572,3.1589,3.16,3.1613,3.1626,3.1622,3.1622,3.1612,3.155,3.1534,3.1584,3.1583,3.1583,3.1583,3.1583,3.1575,3.1559,3.1597,3.1611,3.1635,3.1658,3.1656,3.1681,3.1691,3.1705,3.1693,3.1648,3.1642,3.1637,3.1623,3.1694,3.1694,3.1694,3.1694,3.1612,3.161,3.1649,3.1671,3.1692,3.1694,3.1735,3.1744,3.175,3.1756,3.1746,3.1728,3.1723,3.172,3.1713,3.1701,3.1789,3.1789,3.1789,3.1656,3.1656,3.1692,3.17,3.1719,3.1734,3.1773,3.1797,3.18,3.1793,3.176,3.1756,3.1728,3.1719,3.171,3.1699,3.1676,0,0]}]]